Location: Biltmore Gardens
(41.6070°N, 83.4666°W)
Time: 14:15:08
(UTC+00:00)

Landsat 7 - Pass Details

Date: 14 July 2020
Orbit: 701 x 703 km, 98.1° (Epoch: 05 August)

Event Time Altitude Azimuth Distance (km) Brightness Sun altitude
Exits shadow 03:07:35 20° 190° (S) 1,585 5.3 -17.6°
Maximum altitude 03:10:40 52° 260° (W) 871 4.4 -18.0°
Drops below altitude 10° 03:15:19 10° 337° (NNW) 2,177 7.5 -18.5°
Sets 03:17:39 0° 343° (NNW) 3,099 8.5 -18.7°
